This is the latest recevied weather packets stored in our database for station/object SQ5LTL-2. If no packets are shown the sender has not sent any weather packets the latest 10 day(s).
| Time | Temp. | Humidity | Pressure | Rain* | Wind** | Luminosity | Snow |
|---|---|---|---|---|---|---|---|
| 1778070931 | 26.11° C | 40% | 1006.8 hPa | 0 mm | - | 542 W/m² | - |
| 1778070629 | 25° C | 42% | 1006.9 hPa | 0 mm | - | 371 W/m² | - |
| 1778070328 | 25.56° C | 41% | 1006.9 hPa | 0 mm | - | 299 W/m² | - |
| 1778070026 | 25.56° C | 40% | 1006.8 hPa | 0 mm | - | 517 W/m² | - |
| 1778069726 | 25.56° C | 41% | 1006.6 hPa | 0 mm | - | 351 W/m² | - |
| 1778069424 | 26.11° C | 40% | 1006.7 hPa | 0 mm | - | 571 W/m² | - |
| 1778069122 | 26.11° C | 40% | 1006.8 hPa | 0 mm | - | 434 W/m² | - |
| 1778068821 | 26.11° C | 40% | 1006.7 hPa | 0 mm | - | 557 W/m² | - |
| 1778068519 | 25.56° C | 41% | 1006.5 hPa | 0 mm | - | 388 W/m² | - |
| 1778068218 | 26.11° C | 39% | 1006.7 hPa | 0 mm | - | 451 W/m² | - |
| 1778067917 | 25° C | 40% | 1006.7 hPa | 0 mm | - | 540 W/m² | - |
| 1778067635 | 25.56° C | 39% | 1006.6 hPa | 0 mm | - | 289 W/m² | - |
| 1778067333 | 25.56° C | 39% | 1006.6 hPa | 0 mm | - | 340 W/m² | - |
| 1778067032 | 25.56° C | 38% | 1006.6 hPa | 0 mm | - | 511 W/m² | - |
| 1778066730 | 25.56° C | 38% | 1006.5 hPa | 0 mm | - | 544 W/m² | - |
| 1778066429 | 25.56° C | 37% | 1006.6 hPa | 0 mm | - | 549 W/m² | - |
| 1778066127 | 26.11° C | 37% | 1006.6 hPa | 0 mm | - | 582 W/m² | - |
| 1778065826 | 25.56° C | 37% | 1006.5 hPa | 0 mm | - | 616 W/m² | - |
| 1778065524 | 26.11° C | 37% | 1006.6 hPa | 0 mm | - | 382 W/m² | - |
| 1778065223 | 25.56° C | 37% | 1006.5 hPa | 0 mm | - | 587 W/m² | - |
| 1778064922 | 25.56° C | 37% | 1006.6 hPa | 0 mm | - | 612 W/m² | - |
| 1778064620 | 25.56° C | 37% | 1006.5 hPa | 0 mm | - | 583 W/m² | - |
| 1778064318 | 25° C | 38% | 1006.5 hPa | 0 mm | - | 589 W/m² | - |
| 1778064017 | 25° C | 38% | 1006.7 hPa | 0 mm | - | 339 W/m² | - |
| 1778063736 | 25.56° C | 37% | 1006.7 hPa | 0 mm | - | 454 W/m² | - |
* Rain latest hour (hover to see other rain measurements)
** Current wind speed in m/s (hover to see current wind gust speed)